When you browse on this site, cookies collect data to enhance your experience and personalize the content and advertising you see.
Visit our Privacy Policy to learn more. By continuing to use the site, you agree to this use of cookies and data.
  • In United Kingdom
  • List of Countries
  • For 7 days
  • Water Temperature
  • Satellite Maps
  • Weather Map
  • Weather Widgets
  • user-avatar
    Login

    Hourly Weather Petrushky

    Today, 25 June, Tuesday

    Time Temperature Precipitation Wind Pressure Humidity
    00:00 +21°C° 0 mm 4 mps 752 mmHg 93%
    01:00 +20°C° 0 mm 4 mps 752 mmHg 95%
    02:00 +20°C° 0 mm 4 mps 752 mmHg 96%
    03:00 +20°C° 0 mm 4 mps 752 mmHg 96%
    04:00 +20°C° 0 mm 4 mps 752 mmHg 97%
    05:00 +20°C° 0 mm 5 mps 753 mmHg 97%
    06:00 +21°C° 0 mm 5 mps 753 mmHg 91%
    07:00 +22°C° 0 mm 5 mps 753 mmHg 85%
    08:00 +23°C° 0 mm 5 mps 754 mmHg 79%
    09:00 +24°C° 0 mm 6 mps 754 mmHg 74%
    10:00 +26°C° 0 mm 6 mps 754 mmHg 68%
    11:00 +27°C° 0 mm 6 mps 754 mmHg 62%
    12:00 +27°C° 0 mm 6 mps 755 mmHg 60%
    13:00 +27°C° 0 mm 6 mps 755 mmHg 58%
    14:00 +27°C° 0 mm 6 mps 755 mmHg 56%
    15:00 +27°C° 0 mm 6 mps 755 mmHg 58%
    16:00 +27°C° 0 mm 5 mps 755 mmHg 60%
    17:00 +27°C° 0 mm 5 mps 755 mmHg 63%
    18:00 +25°C° 0 mm 5 mps 755 mmHg 67%
    19:00 +23°C° 0 mm 4 mps 755 mmHg 72%
    20:00 +21°C° 0 mm 4 mps 756 mmHg 77%
    21:00 +20°C° 0 mm 3 mps 756 mmHg 79%
    22:00 +19°C° 0 mm 3 mps 756 mmHg 80%
    23:00 +18°C° 0 mm 2 mps 756 mmHg 82%

    Tomorrow, 26 June, Wednesday

    Time Temperature Precipitation Wind Pressure Humidity
    00:00 +17°C° 0 mm 2 mps 756 mmHg 84%
    01:00 +17°C° 0 mm 2 mps 756 mmHg 85%
    02:00 +16°C° 0 mm 2 mps 757 mmHg 87%
    03:00 +16°C° 0 mm 2 mps 757 mmHg 87%
    04:00 +16°C° 0 mm 2 mps 756 mmHg 87%
    05:00 +16°C° 0 mm 1 mps 756 mmHg 88%
    06:00 +18°C° 0 mm 2 mps 756 mmHg 80%
    07:00 +20°C° 0 mm 2 mps 757 mmHg 73%
    08:00 +23°C° 0 mm 2 mps 757 mmHg 66%
    09:00 +24°C° 0 mm 2 mps 757 mmHg 62%
    10:00 +25°C° 0 mm 2 mps 756 mmHg 58%
    11:00 +26°C° 0 mm 1 mps 756 mmHg 54%
    12:00 +26°C° 0 mm 1 mps 756 mmHg 53%
    13:00 +27°C° 0 mm 1 mps 756 mmHg 51%
    14:00 +27°C° 0 mm 1 mps 756 mmHg 50%
    15:00 +27°C° 0 mm 1 mps 755 mmHg 51%
    16:00 +27°C° 0 mm 1 mps 754 mmHg 52%
    17:00 +27°C° 0 mm 1 mps 754 mmHg 53%
    18:00 +25°C° 0 mm 1 mps 754 mmHg 59%
    19:00 +23°C° 0 mm 1 mps 753 mmHg 66%
    20:00 +21°C° 0 mm 1 mps 753 mmHg 72%
    21:00 +21°C° 0 mm 1 mps 753 mmHg 73%
    22:00 +19°C° 0 mm 2 mps 753 mmHg 74%
    23:00 +19°C° 0 mm 2 mps 752 mmHg 75%

    Day after tomorrow, 27 June, Thursday

    Time Temperature Precipitation Wind Pressure Humidity
    00:00 +18°C° 0 mm 3 mps 752 mmHg 76%
    01:00 +18°C° 0 mm 3 mps 752 mmHg 78%
    02:00 +17°C° 0 mm 3 mps 751 mmHg 79%
    03:00 +17°C° 0 mm 3 mps 751 mmHg 80%
    04:00 +17°C° 0 mm 3 mps 750 mmHg 81%
    05:00 +17°C° 0 mm 3 mps 749 mmHg 82%
    06:00 +19°C° 0 mm 4 mps 749 mmHg 77%
    07:00 +21°C° 0 mm 5 mps 748 mmHg 73%
    08:00 +23°C° 0 mm 6 mps 748 mmHg 68%
    09:00 +24°C° 0 mm 6 mps 747 mmHg 66%
    10:00 +26°C° 0 mm 7 mps 746 mmHg 63%
    11:00 +27°C° 0 mm 7 mps 745 mmHg 60%
    12:00 +28°C° 0 mm 7 mps 745 mmHg 61%
    13:00 +28°C° 0 mm 8 mps 744 mmHg 62%
    14:00 +29°C° 0 mm 8 mps 743 mmHg 63%
    15:00 +28°C° 0.4 mm 7 mps 743 mmHg 69%
    16:00 +27°C° 0.4 mm 6 mps 742 mmHg 75%
    17:00 +25°C° 0.4 mm 5 mps 741 mmHg 81%
    18:00 +23°C° 0.1 mm 5 mps 741 mmHg 83%
    19:00 +23°C° 0.1 mm 5 mps 741 mmHg 84%
    20:00 +22°C° 0.1 mm 5 mps 740 mmHg 86%
    21:00 +21°C° 0 mm 6 mps 740 mmHg 86%
    22:00 +20°C° 0 mm 6 mps 741 mmHg 87%
    23:00 +18°C° 0 mm 7 mps 741 mmHg 87%

    28 June, Friday

    Time Temperature Precipitation Wind Pressure Humidity
    00:00 +17°C° 0 mm 6 mps 741 mmHg 88%
    01:00 +16°C° 0 mm 6 mps 741 mmHg 88%
    02:00 +15°C° 0 mm 5 mps 741 mmHg 89%
    03:00 +14°C° 0 mm 5 mps 741 mmHg 89%
    04:00 +14°C° 0 mm 6 mps 741 mmHg 89%
    05:00 +14°C° 0 mm 6 mps 741 mmHg 88%
    06:00 +15°C° 0 mm 6 mps 741 mmHg 82%
    07:00 +16°C° 0 mm 7 mps 741 mmHg 76%
    08:00 +17°C° 0 mm 8 mps 741 mmHg 70%
    09:00 +18°C° 0 mm 8 mps 741 mmHg 67%
    10:00 +18°C° 0 mm 8 mps 741 mmHg 63%
    11:00 +20°C° 0 mm 8 mps 741 mmHg 60%
    12:00 +18°C° 0.2 mm 8 mps 741 mmHg 62%
    13:00 +18°C° 0.2 mm 8 mps 741 mmHg 65%
    14:00 +18°C° 0.2 mm 9 mps 741 mmHg 67%
    15:00 +18°C° 0.4 mm 8 mps 741 mmHg 69%
    16:00 +18°C° 0.4 mm 8 mps 741 mmHg 71%
    17:00 +18°C° 0.4 mm 8 mps 742 mmHg 73%
    18:00 +17°C° 0.2 mm 7 mps 742 mmHg 76%
    19:00 +15°C° 0.2 mm 6 mps 742 mmHg 80%
    20:00 +14°C° 0.2 mm 5 mps 742 mmHg 84%
    21:00 +14°C° 0 mm 5 mps 742 mmHg 84%
    22:00 +13°C° 0 mm 5 mps 742 mmHg 83%
    23:00 +13°C° 0 mm 6 mps 743 mmHg 83%

    29 June, Saturday

    Time Temperature Precipitation Wind Pressure Humidity
    00:00 +11°C° 0 mm 6 mps 743 mmHg 83%
    01:00 +11°C° 0 mm 6 mps 743 mmHg 82%
    02:00 +10°C° 0 mm 6 mps 743 mmHg 82%
    03:00 +10°C° 0 mm 6 mps 743 mmHg 82%
    04:00 +10°C° 0 mm 6 mps 743 mmHg 83%
    05:00 +10°C° 0 mm 6 mps 743 mmHg 83%
    06:00 +11°C° 0 mm 6 mps 744 mmHg 75%
    07:00 +14°C° 0 mm 7 mps 744 mmHg 67%
    08:00 +15°C° 0 mm 8 mps 744 mmHg 59%
    09:00 +16°C° 0 mm 8 mps 744 mmHg 55%
    10:00 +16°C° 0 mm 8 mps 745 mmHg 52%
    11:00 +17°C° 0 mm 8 mps 745 mmHg 49%
    12:00 +17°C° 0 mm 8 mps 745 mmHg 48%
    13:00 +18°C° 0 mm 7 mps 745 mmHg 48%
    14:00 +18°C° 0 mm 7 mps 745 mmHg 47%
    15:00 +19°C° 0 mm 6 mps 745 mmHg 51%
    16:00 +17°C° 0 mm 5 mps 745 mmHg 56%
    17:00 +18°C° 0 mm 4 mps 745 mmHg 60%
    18:00 +15°C° 0.1 mm 4 mps 745 mmHg 65%
    19:00 +14°C° 0.1 mm 4 mps 745 mmHg 69%
    20:00 +13°C° 0.1 mm 3 mps 746 mmHg 73%
    21:00 +12°C° 0 mm 3 mps 746 mmHg 77%
    22:00 +11°C° 0 mm 4 mps 746 mmHg 80%
    23:00 +10°C° 0 mm 4 mps 746 mmHg 83%

    30 June, Sunday

    Time Temperature Precipitation Wind Pressure Humidity
    00:00 +11°C° 0 mm 4 mps 746 mmHg 83%
    01:00 +11°C° 0 mm 4 mps 746 mmHg 84%
    02:00 +11°C° 0 mm 4 mps 746 mmHg 85%
    03:00 +11°C° 0.1 mm 4 mps 746 mmHg 85%
    04:00 +11°C° 0.1 mm 4 mps 746 mmHg 86%
    05:00 +12°C° 0.1 mm 4 mps 746 mmHg 87%
    06:00 +13°C° 0 mm 4 mps 746 mmHg 82%
    07:00 +14°C° 0 mm 4 mps 747 mmHg 77%
    08:00 +15°C° 0 mm 5 mps 747 mmHg 73%
    09:00 +17°C° 0.2 mm 4 mps 747 mmHg 71%
    10:00 +18°C° 0.2 mm 4 mps 747 mmHg 70%
    11:00 +18°C° 0.2 mm 4 mps 747 mmHg 68%
    12:00 +19°C° 0.3 mm 4 mps 747 mmHg 67%
    13:00 +19°C° 0.3 mm 3 mps 747 mmHg 67%
    14:00 +20°C° 0.3 mm 3 mps 747 mmHg 66%
    15:00 +20°C° 0.2 mm 3 mps 747 mmHg 66%
    16:00 +20°C° 0.2 mm 2 mps 747 mmHg 66%
    17:00 +21°C° 0.2 mm 2 mps 747 mmHg 66%
    18:00 +19°C° 0.2 mm 2 mps 747 mmHg 73%
    19:00 +18°C° 0.2 mm 2 mps 747 mmHg 79%
    20:00 +16°C° 0.2 mm 1 mps 747 mmHg 85%
    21:00 +16°C° 0 mm 1 mps 747 mmHg 86%
    22:00 +16°C° 0 mm 1 mps 747 mmHg 87%
    23:00 +15°C° 0 mm 1 mps 747 mmHg 87%
    Show more